datetime,area
1982-10-04,44.58
1982-10-05,52.91
1982-10-06,56.46
1982-10-07,59.66
1982-10-08,62.62
1982-10-09,64.9
1982-10-10,66.63
1982-10-11,68.16
1982-10-12,69.51
1982-10-13,70.85
1982-10-14,72.0
1982-10-15,73.16
1982-10-16,74.5
1982-10-17,75.64
1982-10-18,76.78
1982-10-19,77.54
1982-10-20,78.3
1982-10-21,79.06
1982-10-22,79.84
1982-10-23,80.58
1982-10-24,81.34
1982-10-25,82.1
1982-10-26,82.86
1982-10-27,84.0
1982-10-28,84.78
1982-10-29,84.97
1982-10-30,85.55
1982-10-31,86.13
1982-11-01,87.1
1982-11-02,87.88
1982-11-03,88.27
1982-11-04,88.85
1982-11-05,89.43
1982-11-06,89.82
1982-11-07,90.6
1982-11-08,91.37
1982-11-09,92.15
1982-11-10,92.73
1982-11-11,93.51
1982-11-12,94.21
1982-11-13,94.98
1982-11-14,95.62
1982-11-15,96.26
1982-11-16,97.08
1982-11-17,97.8
1982-11-18,98.51
1982-11-19,99.64
1982-11-20,100.25
1982-11-21,101.02
1982-11-22,101.76
1982-11-23,102.4
1982-11-24,103.17
1982-11-25,103.81
1982-11-26,104.45
1982-11-27,105.02
1982-11-28,105.66
1982-11-29,105.86
1982-11-30,105.78
1982-12-01,105.83
1982-12-02,105.86
1982-12-03,105.6
1982-12-04,105.58
1982-12-05,105.6
1982-12-06,105.58
1982-12-07,105.58
1982-12-08,105.63
1982-12-09,105.63
1982-12-10,105.68
1982-12-11,105.58
1982-12-12,105.45
1982-12-13,105.42
1982-12-14,105.35
1982-12-15,105.35
1982-12-16,105.37
1982-12-17,105.37
1982-12-18,105.32
1982-12-19,105.25
1982-12-20,
1982-12-21,
1982-12-22,
1982-12-23,105.55
1982-12-24,
1982-12-25,
1982-12-26,
1982-12-27,105.58
1982-12-28,
1982-12-29,
1982-12-30,105.58
1982-12-31,
1983-01-01,
1983-01-02,
1983-01-03,105.14
1983-01-04,
1983-01-05,
1983-01-06,105.76
1983-01-07,
1983-01-08,
1983-01-09,
1983-01-10,105.76
1983-01-11,
1983-01-12,
1983-01-13,105.78
1983-01-14,
1983-01-15,
1983-01-16,
1983-01-17,106.19
1983-01-18,
1983-01-19,
1983-01-20,
1983-01-21,106.69
1983-01-22,
1983-01-23,
1983-01-24,106.64
1983-01-25,
1983-01-26,
1983-01-27,106.42
1983-01-28,
1983-01-29,
1983-01-30,
1983-01-31,106.04
1983-02-01,
1983-02-02,
1983-02-03,104.55
1983-02-04,
1983-02-05,
1983-02-06,
1983-02-07,105.45
1983-02-08,
1983-02-09,
1983-02-10,106.09
1983-02-11,
1983-02-12,
1983-02-13,
1983-02-14,106.99
1983-02-15,
1983-02-16,107.42
1983-02-17,
1983-02-18,106.14
1983-02-19,
1983-02-20,
1983-02-21,
1983-02-22,104.53
1983-02-23,
1983-02-24,104.27
1983-02-25,
1983-02-26,
1983-02-27,
1983-02-28,104.84
1983-03-01,
1983-03-02,
1983-03-03,
1983-03-04,
1983-03-05,
1983-03-06,
1983-03-07,
1983-03-08,
1983-03-09,
1983-03-10,
1983-03-11,
1983-03-12,
1983-03-13,
1983-03-14,
1983-03-15,
1983-03-16,
1983-03-17,
1983-03-18,
1983-03-19,
1983-03-20,
1983-03-21,
1983-03-22,
1983-03-23,
1983-03-24,
1983-03-25,
1983-03-26,
1983-03-27,
1983-03-28,
1983-03-29,
1983-03-30,
1983-03-31,103.07
1983-04-01,103.15
1983-04-02,
1983-04-03,
1983-04-04,
1983-04-05,
1983-04-06,
1983-04-07,
1983-04-08,
1983-04-09,
1983-04-10,
1983-04-11,
1983-04-12,
1983-04-13,
1983-04-14,
1983-04-15,
1983-04-16,
1983-04-17,
1983-04-18,103.27
1983-04-19,
1983-04-20,
1983-04-21,
1983-04-22,
1983-04-23,
1983-04-24,
1983-04-25,
1983-04-26,
1983-04-27,
1983-04-28,
1983-04-29,
1983-04-30,103.22
1983-05-01,
1983-05-02,
1983-05-03,
1983-05-04,
1983-05-05,
1983-05-06,
1983-05-07,
1983-05-08,
1983-05-09,
1983-05-10,
1983-05-11,
1983-05-12,
1983-05-13,
1983-05-14,
1983-05-15,
1983-05-16,
1983-05-17,
1983-05-18,
1983-05-19,
1983-05-20,
1983-05-21,
1983-05-22,
1983-05-23,
1983-05-24,
1983-05-25,
1983-05-26,
1983-05-27,
1983-05-28,
1983-05-29,
1983-05-30,
1983-05-31,125.55
1983-06-01,
1983-06-02,
1983-06-03,
1983-06-04,
1983-06-05,
1983-06-06,
1983-06-07,
1983-06-08,
1983-06-09,
1983-06-10,137.4
1983-06-11,
1983-06-12,
1983-06-13,
1983-06-14,
1983-06-15,
1983-06-16,
1983-06-17,
1983-06-18,
1983-06-19,
1983-06-20,146.81
1983-06-21,
1983-06-22,
1983-06-23,
1983-06-24,
1983-06-25,
1983-06-26,
1983-06-27,
1983-06-28,
1983-06-29,
1983-06-30,157.11
1983-07-01,
1983-07-02,
1983-07-03,
1983-07-04,
1983-07-05,
1983-07-06,
1983-07-07,
1983-07-08,
1983-07-09,
1983-07-10,
1983-07-11,
1983-07-12,
1983-07-13,
1983-07-14,
1983-07-15,
1983-07-16,
1983-07-17,
1983-07-18,
1983-07-19,
1983-07-20,
1983-07-21,
1983-07-22,
1983-07-23,
1983-07-24,
1983-07-25,
1983-07-26,
1983-07-27,
1983-07-28,
1983-07-29,
1983-07-30,
1983-07-31,158.23
1983-08-01,
1983-08-02,
1983-08-03,
1983-08-04,
1983-08-05,
1983-08-06,
1983-08-07,
1983-08-08,
1983-08-09,
1983-08-10,
1983-08-11,
1983-08-12,
1983-08-13,
1983-08-14,
1983-08-15,
1983-08-16,
1983-08-17,
1983-08-18,
1983-08-19,
1983-08-20,
1983-08-21,
1983-08-22,
1983-08-23,
1983-08-24,
1983-08-25,
1983-08-26,
1983-08-27,
1983-08-28,
1983-08-29,
1983-08-30,
1983-08-31,156.75
1983-09-01,
1983-09-02,
1983-09-03,
1983-09-04,
1983-09-05,
1983-09-06,
1983-09-07,
1983-09-08,
1983-09-09,
1983-09-10,
1983-09-11,
1983-09-12,
1983-09-13,
1983-09-14,
1983-09-15,
1983-09-16,
1983-09-17,
1983-09-18,
1983-09-19,
1983-09-20,
1983-09-21,
1983-09-22,
1983-09-23,
1983-09-24,
1983-09-25,
1983-09-26,
1983-09-27,
1983-09-28,
1983-09-29,
1983-09-30,157.84
1983-10-01,
1983-10-02,
1983-10-03,
1983-10-04,
1983-10-05,
1983-10-06,
1983-10-07,
1983-10-08,
1983-10-09,
1983-10-10,
1983-10-11,
1983-10-12,
1983-10-13,
1983-10-14,
1983-10-15,
1983-10-16,
1983-10-17,
1983-10-18,
1983-10-19,
1983-10-20,
1983-10-21,
1983-10-22,
1983-10-23,
1983-10-24,
1983-10-25,
1983-10-26,
1983-10-27,
1983-10-28,
1983-10-29,
1983-10-30,
1983-10-31,158.1
1983-11-01,
1983-11-02,
1983-11-03,
1983-11-04,
1983-11-05,
1983-11-06,
1983-11-07,
1983-11-08,
1983-11-09,
1983-11-10,
1983-11-11,
1983-11-12,
1983-11-13,
1983-11-14,
1983-11-15,
1983-11-16,
1983-11-17,
1983-11-18,
1983-11-19,
1983-11-20,
1983-11-21,
1983-11-22,
1983-11-23,
1983-11-24,
1983-11-25,
1983-11-26,
1983-11-27,
1983-11-28,
1983-11-29,
1983-11-30,
1983-12-01,
1983-12-02,
1983-12-03,
1983-12-04,
1983-12-05,
1983-12-06,
1983-12-07,
1983-12-08,
1983-12-09,
1983-12-10,
1983-12-11,
1983-12-12,
1983-12-13,
1983-12-14,
1983-12-15,
1983-12-16,
1983-12-17,
1983-12-18,
1983-12-19,
1983-12-20,
1983-12-21,
1983-12-22,
1983-12-23,
1983-12-24,
1983-12-25,
1983-12-26,
1983-12-27,
1983-12-28,
1983-12-29,
1983-12-30,
1983-12-31,157.88
1984-01-01,
1984-01-02,
1984-01-03,
1984-01-04,
1984-01-05,
1984-01-06,
1984-01-07,
1984-01-08,
1984-01-09,
1984-01-10,
1984-01-11,
1984-01-12,
1984-01-13,
1984-01-14,
1984-01-15,
1984-01-16,
1984-01-17,
1984-01-18,
1984-01-19,
1984-01-20,
1984-01-21,
1984-01-22,
1984-01-23,
1984-01-24,
1984-01-25,
1984-01-26,
1984-01-27,
1984-01-28,
1984-01-29,
1984-01-30,
1984-01-31,157.18
1984-02-01,
1984-02-02,
1984-02-03,
1984-02-04,
1984-02-05,
1984-02-06,
1984-02-07,
1984-02-08,204.2
1984-02-09,
1984-02-10,
1984-02-11,
1984-02-12,
1984-02-13,
1984-02-14,
1984-02-15,
1984-02-16,
1984-02-17,
1984-02-18,
1984-02-19,
1984-02-20,
1984-02-21,
1984-02-22,156.58
1984-02-23,
1984-02-24,
1984-02-25,
1984-02-26,
1984-02-27,
1984-02-28,
1984-02-29,
1984-03-01,
1984-03-02,
1984-03-03,
1984-03-04,
1984-03-05,
1984-03-06,
1984-03-07,156.08
1984-03-08,
1984-03-09,
1984-03-10,
1984-03-11,
1984-03-12,
1984-03-13,
1984-03-14,156.51
1984-03-15,
1984-03-16,
1984-03-17,
1984-03-18,
1984-03-19,
1984-03-20,156.92
1984-03-21,156.51
1984-03-22,
1984-03-23,
1984-03-24,
1984-03-25,
1984-03-26,
1984-03-27,
1984-03-28,
1984-03-29,
1984-03-30,157.82
1984-03-31,
1984-04-01,
1984-04-02,157.93
1984-04-03,
1984-04-04,
1984-04-05,
1984-04-06,
1984-04-07,
1984-04-08,
1984-04-09,
1984-04-10,
1984-04-11,155.11
1984-04-12,
1984-04-13,
1984-04-14,
1984-04-15,154.52
1984-04-16,
1984-04-17,155.18
1984-04-18,155.84
1984-04-19,156.51
1984-04-20,156.51
1984-04-21,156.03
1984-04-22,155.82
1984-04-23,156.1
1984-04-24,157.01
1984-04-25,157.8
1984-04-26,156.96
1984-04-27,155.56
1984-04-28,155.4
1984-04-29,155.4
1984-04-30,
1984-05-01,155.35
1984-05-02,155.47
1984-05-03,155.82
1984-05-04,156.41
1984-05-05,156.6
1984-05-06,156.34
1984-05-07,155.7
1984-05-08,155.47
1984-05-09,156.29
1984-05-10,157.95
1984-05-11,158.38
1984-05-12,157.84
1984-05-13,157.8
1984-05-14,158.33
1984-05-15,157.18
1984-05-16,157.5
1984-05-17,155.68
1984-05-18,155.4
1984-05-19,156.1
1984-05-20,156.9
1984-05-21,157.54
1984-05-22,156.1
1984-05-23,154.62
1984-05-24,156.46
1984-05-25,152.85
1984-05-26,153.04
1984-05-27,153.34
1984-05-28,152.4
1984-05-29,152.54
1984-05-30,152.8
1984-05-31,153.2
1984-06-01,154.76
1984-06-02,154.45
1984-06-03,152.97
1984-06-04,152.66
1984-06-05,154.0
1984-06-06,154.43
1984-06-07,156.39
1984-06-08,155.84
1984-06-09,155.16
1984-06-10,154.5
1984-06-11,155.07
1984-06-12,154.95
1984-06-13,155.18
1984-06-14,155.42
1984-06-15,155.7
1984-06-16,155.84
1984-06-17,155.94
1984-06-18,155.89
1984-06-19,155.75
1984-06-20,155.44
1984-06-21,155.28
1984-06-22,156.06
1984-06-23,156.41
1984-06-24,156.64
1984-06-25,156.66
1984-06-26,156.71
1984-06-27,155.56
1984-06-28,154.33
1984-06-29,152.61
1984-06-30,150.87
1984-07-01,150.68
1984-07-02,152.19
1984-07-03,153.79
1984-07-04,155.21
1984-07-05,156.58
1984-07-06,157.54
1984-07-07,157.65
1984-07-08,157.76
1984-07-09,158.03
1984-07-10,158.23
1984-07-11,158.25
1984-07-12,158.06
1984-07-13,157.93
1984-07-14,158.35
1984-07-15,158.35
1984-07-16,158.08
1984-07-17,157.73
1984-07-18,157.84
1984-07-19,157.93
1984-07-20,157.97
1984-07-21,157.91
1984-07-22,158.23
1984-07-23,157.84
1984-07-24,157.2
1984-07-25,157.11
1984-07-26,157.61
1984-07-27,157.54
1984-07-28,157.39
1984-07-29,157.61
1984-07-30,157.41
1984-07-31,157.41
1984-08-01,157.41
1984-08-02,157.31
1984-08-03,157.31
1984-08-04,157.14
1984-08-05,157.11
1984-08-06,157.18
1984-08-07,157.09
1984-08-08,157.07
1984-08-09,156.94
1984-08-10,156.94
1984-08-11,156.99
1984-08-12,157.22
1984-08-13,157.26
1984-08-14,157.5
1984-08-15,157.31
1984-08-16,157.33
1984-08-17,157.28
1984-08-18,157.26
1984-08-19,157.24
1984-08-20,157.71
1984-08-21,157.56
1984-08-22,157.41
1984-08-23,157.46
1984-08-24,157.52
1984-08-25,157.54
1984-08-26,157.84
1984-08-27,157.88
1984-08-28,157.8
1984-08-29,157.69
1984-08-30,157.61
1984-08-31,157.61
1984-09-01,157.26
1984-09-02,157.63
1984-09-03,157.63
1984-09-04,157.63
1984-09-05,157.63
1984-09-06,157.58
1984-09-07,157.61
1984-09-08,157.56
1984-09-09,157.56
1984-09-10,157.54
1984-09-11,157.56
1984-09-12,157.82
1984-09-13,157.78
1984-09-14,157.73
1984-09-15,157.69
1984-09-16,157.69
1984-09-17,157.69
1984-09-18,157.65
1984-09-19,157.65
1984-09-20,157.65
1984-09-21,158.06
1984-09-22,158.38
1984-09-23,158.55
1984-09-24,158.74
1984-09-25,159.02
1984-09-26,159.19
1984-09-27,159.45
1984-09-28,159.55
1984-09-29,159.72
1984-09-30,159.87
1984-10-01,160.05
1984-10-02,160.62
1984-10-03,161.09
1984-10-04,161.48
1984-10-05,161.78
1984-10-06,162.06
1984-10-07,162.4
1984-10-08,162.68
1984-10-09,162.93
1984-10-10,163.26
1984-10-11,163.6
1984-10-12,164.07
1984-10-13,164.48
1984-10-14,164.95
1984-10-15,165.29
1984-10-16,165.61
1984-10-17,166.02
1984-10-18,166.53
1984-10-19,166.87
1984-10-20,167.26
1984-10-21,167.69
1984-10-22,168.09
1984-10-23,168.48
1984-10-24,168.75
1984-10-25,169.17
1984-10-26,169.51
1984-10-27,170.03
1984-10-28,170.35
1984-10-29,170.79
1984-10-30,171.19
1984-10-31,171.63
1984-11-01,172.1
1984-11-02,172.49
1984-11-03,172.93
1984-11-04,173.33
1984-11-05,173.67
1984-11-06,174.04
1984-11-07,174.43
1984-11-08,174.88
1984-11-09,175.39
1984-11-10,175.84
1984-11-11,176.23
1984-11-12,176.67
1984-11-13,177.02
1984-11-14,177.44
1984-11-15,177.88
1984-11-16,178.17
1984-11-17,178.54
1984-11-18,178.99
1984-11-19,179.3
1984-11-20,179.6
1984-11-21,179.95
1984-11-22,180.23
1984-11-23,180.54
1984-11-24,180.84
1984-11-25,181.26
1984-11-26,181.66
1984-11-27,181.66
1984-11-28,181.66
1984-11-29,181.71
1984-11-30,181.71
1984-12-01,181.82
1984-12-02,181.66
1984-12-03,181.59
1984-12-04,181.47
1984-12-05,181.5
1984-12-06,181.54
1984-12-07,181.61
1984-12-08,181.64
1984-12-09,181.68
1984-12-10,181.73
1984-12-11,181.71
1984-12-12,
1984-12-13,181.99
1984-12-14,181.96
1984-12-15,
1984-12-16,
1984-12-17,182.08
1984-12-18,
1984-12-19,181.96
1984-12-20,
1984-12-21,
1984-12-22,
1984-12-23,
1984-12-24,
1984-12-25,
1984-12-26,
1984-12-27,
1984-12-28,
1984-12-29,
1984-12-30,
1984-12-31,
1985-01-01,
1985-01-02,180.28
1985-01-03,
1985-01-04,181.24
1985-01-05,
1985-01-06,
1985-01-07,180.28
1985-01-08,
1985-01-09,180.26
1985-01-10,
1985-01-11,180.26
1985-01-12,
1985-01-13,
1985-01-14,180.19
1985-01-15,
1985-01-16,180.16
1985-01-17,
1985-01-18,180.02
1985-01-19,
1985-01-20,
1985-01-21,180.19
1985-01-22,
1985-01-23,180.47
1985-01-24,
1985-01-25,180.58
1985-01-26,
1985-01-27,
1985-01-28,180.72
1985-01-29,
1985-01-30,180.82
1985-01-31,
1985-02-01,180.86
1985-02-02,
1985-02-03,
1985-02-04,181.0
1985-02-05,
1985-02-06,
1985-02-07,
1985-02-08,181.05
1985-02-09,
1985-02-10,
1985-02-11,181.36
1985-02-12,
1985-02-13,181.36
1985-02-14,
1985-02-15,181.36
1985-02-16,181.36
1985-02-17,
1985-02-18,181.36
1985-02-19,
1985-02-20,181.61
1985-02-21,
1985-02-22,181.71
1985-02-23,
1985-02-24,
1985-02-25,
1985-02-26,
1985-02-27,
1985-02-28,181.94
1985-03-01,181.94
1985-03-02,
1985-03-03,
1985-03-04,181.94
1985-03-05,
1985-03-06,182.17
1985-03-07,
1985-03-08,182.17
1985-03-09,
1985-03-10,
1985-03-11,182.17
1985-03-12,
1985-03-13,182.36
1985-03-14,
1985-03-15,182.29
1985-03-16,182.53
1985-03-17,182.88
1985-03-18,183.16
1985-03-19,183.62
1985-03-20,184.05
1985-03-21,184.44
1985-03-22,182.64
1985-03-23,182.99
1985-03-24,183.32
1985-03-25,183.72
1985-03-26,186.57
1985-03-27,186.97
1985-03-28,187.51
1985-03-29,187.91
1985-03-30,188.38
1985-03-31,188.66
1985-04-01,189.15
1985-04-02,189.47
1985-04-03,190.15
1985-04-04,191.18
1985-04-05,192.04
1985-04-06,193.09
1985-04-07,193.68
1985-04-08,195.45
1985-04-09,197.93
1985-04-10,200.95
1985-04-11,204.2
1985-04-12,206.54
1985-04-13,207.96
1985-04-14,209.41
1985-04-15,210.99
1985-04-16,212.32
1985-04-17,213.87
1985-04-18,215.27
1985-04-19,216.55
1985-04-20,218.33
1985-04-21,219.9
1985-04-22,221.36
1985-04-23,222.82
1985-04-24,224.58
1985-04-25,226.04
1985-04-26,227.5
1985-04-27,228.99
1985-04-28,229.98
1985-04-29,230.97
1985-04-30,233.07
1985-05-01,235.31
1985-05-02,237.48
1985-05-03,239.29
1985-05-04,240.88
1985-05-05,241.69
1985-05-06,241.95
1985-05-07,242.99
1985-05-08,244.96
1985-05-09,246.62
1985-05-10,247.76
1985-05-11,249.18
1985-05-12,249.65
1985-05-13,250.86
1985-05-14,251.85
1985-05-15,252.07
1985-05-16,252.04
1985-05-17,251.91
1985-05-18,251.97
1985-05-19,252.41
1985-05-20,252.81
1985-05-21,253.28
1985-05-22,252.87
1985-05-23,252.69
1985-05-24,254.02
1985-05-25,255.6
1985-05-26,257.18
1985-05-27,258.24
1985-05-28,258.86
1985-05-29,259.23
1985-05-30,259.44
1985-05-31,259.79
1985-06-01,260.44
1985-06-02,260.96
1985-06-03,261.49
1985-06-04,262.48
1985-06-05,263.66
1985-06-06,264.63
1985-06-07,265.38
1985-06-08,266.02
1985-06-09,266.64
1985-06-10,266.61
1985-06-11,266.45
1985-06-12,266.72
1985-06-13,266.69
1985-06-14,266.69
1985-06-15,266.59
1985-06-16,266.48
1985-06-17,266.56
1985-06-18,266.59
1985-06-19,266.59
1985-06-20,266.48
1985-06-21,266.26
1985-06-22,266.56
1985-06-23,266.61
1985-06-24,266.59
1985-06-25,266.85
1985-06-26,266.96
1985-06-27,266.91
1985-06-28,266.77
1985-06-29,266.83
1985-06-30,266.8
1985-07-01,266.75
1985-07-02,266.88
1985-07-03,266.91
1985-07-04,266.85
1985-07-05,266.85
1985-07-06,266.85
1985-07-07,266.83
1985-07-08,266.77
1985-07-09,266.8
1985-07-10,266.85
1985-07-11,266.91
1985-07-12,266.99
1985-07-13,267.18
1985-07-14,267.04
1985-07-15,266.85
1985-07-16,266.83
1985-07-17,266.93
1985-07-18,266.93
1985-07-19,267.15
1985-07-20,267.1
1985-07-21,266.99
1985-07-22,266.88
1985-07-23,266.96
1985-07-24,266.99
1985-07-25,266.88
1985-07-26,266.88
1985-07-27,266.93
1985-07-28,266.96
1985-07-29,266.99
1985-07-30,266.96
1985-07-31,266.85
1985-08-01,266.8
1985-08-02,266.83
1985-08-03,266.83
1985-08-04,266.8
1985-08-05,266.8
1985-08-06,266.83
1985-08-07,266.83
1985-08-08,266.8
1985-08-09,266.72
1985-08-10,266.67
1985-08-11,266.67
1985-08-12,266.67
1985-08-13,266.77
1985-08-14,266.85
1985-08-15,266.99
1985-08-16,266.99
1985-08-17,266.99
1985-08-18,266.96
1985-08-19,266.96
1985-08-20,266.93
1985-08-21,266.96
1985-08-22,266.93
1985-08-23,266.93
1985-08-24,266.91
1985-08-25,266.93
1985-08-26,266.93
1985-08-27,266.93
1985-08-28,266.93
1985-08-29,266.93
1985-08-30,266.93
1985-08-31,266.93
1985-09-01,266.93
1985-09-02,266.93
1985-09-03,266.99
1985-09-04,267.12
1985-09-05,267.01
1985-09-06,266.96
1985-09-07,266.91
1985-09-08,266.91
1985-09-09,266.91
1985-09-10,266.91
1985-09-11,266.85
1985-09-12,267.26
1985-09-13,267.23
1985-09-14,267.15
1985-09-15,267.04
1985-09-16,266.96
1985-09-17,266.91
1985-09-18,266.88
1985-09-19,267.26
1985-09-20,266.93
1985-09-21,266.83
1985-09-22,266.88
1985-09-23,266.96
1985-09-24,266.93
1985-09-25,266.93
1985-09-26,266.93
1985-09-27,266.99
1985-09-28,266.88
1985-09-29,266.93
1985-09-30,266.93
1985-10-01,266.96
1985-10-02,266.96
1985-10-03,266.93
1985-10-04,266.91
1985-10-05,266.96
1985-10-06,267.31
1985-10-07,267.12
1985-10-08,266.99
1985-10-09,266.85
1985-10-10,266.93
1985-10-11,266.93
1985-10-12,266.96
1985-10-13,266.93
1985-10-14,266.85
1985-10-15,266.85
1985-10-16,266.85
1985-10-17,266.83
1985-10-18,266.83
1985-10-19,266.83
1985-10-20,266.83
1985-10-21,267.55
1985-10-22,267.39
1985-10-23,267.36
1985-10-24,267.23
1985-10-25,267.18
1985-10-26,267.18
1985-10-27,267.18
1985-10-28,267.18
1985-10-29,267.18
1985-10-30,267.15
1985-10-31,267.15
1985-11-01,267.15
1985-11-02,266.61
1985-11-03,266.69
1985-11-04,266.61
1985-11-05,266.59
1985-11-06,266.61
1985-11-07,266.61
1985-11-08,266.67
1985-11-09,266.75
1985-11-10,266.64
1985-11-11,266.8
1985-11-12,267.18
1985-11-13,266.88
1985-11-14,267.12
1985-11-15,267.18
1985-11-16,267.1
1985-11-17,267.12
1985-11-18,267.1
1985-11-19,267.1
1985-11-20,267.01
1985-11-21,267.01
1985-11-22,
1985-11-23,267.12
1985-11-24,
1985-11-25,267.36
1985-11-26,
1985-11-27,
1985-11-28,
1985-11-29,
1985-11-30,
1985-12-01,
1985-12-02,267.2
1985-12-03,
1985-12-04,267.1
1985-12-05,
1985-12-06,266.83
1985-12-07,
1985-12-08,
1985-12-09,266.43
1985-12-10,
1985-12-11,266.08
1985-12-12,
1985-12-13,
1985-12-14,
1985-12-15,
1985-12-16,
1985-12-17,
1985-12-18,
1985-12-19,
1985-12-20,
1985-12-21,
1985-12-22,
1985-12-23,
1985-12-24,
1985-12-25,
1985-12-26,
1985-12-27,
1985-12-28,
1985-12-29,
1985-12-30,
1985-12-31,
1986-01-01,
1986-01-02,265.86
1986-01-03,
1986-01-04,
1986-01-05,
1986-01-06,266.24
1986-01-07,
1986-01-08,266.08
1986-01-09,
1986-01-10,266.24
1986-01-11,
1986-01-12,
1986-01-13,266.26
1986-01-14,
1986-01-15,
1986-01-16,
1986-01-17,
1986-01-18,
1986-01-19,
1986-01-20,
1986-01-21,266.48
1986-01-22,
1986-01-23,
1986-01-24,266.64
1986-01-25,
1986-01-26,
1986-01-27,
1986-01-28,
1986-01-29,
1986-01-30,
1986-01-31,267.1
1986-02-01,267.1
1986-02-02,
1986-02-03,266.51
1986-02-04,
1986-02-05,
1986-02-06,
1986-02-07,265.65
1986-02-08,
1986-02-09,
1986-02-10,265.11
1986-02-11,
1986-02-12,
1986-02-13,
1986-02-14,265.7
1986-02-15,
1986-02-16,
1986-02-17,
1986-02-18,266.59
1986-02-19,266.83
1986-02-20,266.32
1986-02-21,266.13
1986-02-22,266.18
1986-02-23,
1986-02-24,266.24
1986-02-25,266.32
1986-02-26,266.51
1986-02-27,
1986-02-28,266.48
1986-03-01,
1986-03-02,266.48
1986-03-03,266.51
1986-03-04,
1986-03-05,
1986-03-06,
1986-03-07,266.51
1986-03-08,266.59
1986-03-09,266.59
1986-03-10,266.59
1986-03-11,266.61
1986-03-12,266.61
1986-03-13,266.61
1986-03-14,266.61
1986-03-15,266.61
1986-03-16,266.51
1986-03-17,266.56
1986-03-18,266.56
1986-03-19,266.56
1986-03-20,266.67
1986-03-21,266.83
1986-03-22,267.12
1986-03-23,267.5
1986-03-24,267.95
1986-03-25,268.33
1986-03-26,268.86
1986-03-27,269.4
1986-03-28,268.6
1986-03-29,269.4
1986-03-30,270.2
1986-03-31,
1986-04-01,268.46
1986-04-02,270.34
1986-04-03,270.2
1986-04-04,270.74
1986-04-05,271.28
1986-04-06,271.44
1986-04-07,271.6
1986-04-08,271.81
1986-04-09,272.0
1986-04-10,272.43
1986-04-11,272.88
1986-04-12,273.23
1986-04-13,273.26
1986-04-14,273.23
1986-04-15,273.88
1986-04-16,273.98
1986-04-17,274.28
1986-04-18,274.47
1986-04-19,266.77
1986-04-20,275.4
1986-04-21,275.75
1986-04-22,276.68
1986-04-23,276.31
1986-04-24,276.89
1986-04-25,276.34
1986-04-26,276.54
1986-04-27,276.85
1986-04-28,277.37
1986-04-29,277.84
1986-04-30,278.6
1986-05-01,279.52
1986-05-02,280.55
1986-05-03,280.55
1986-05-04,279.18
1986-05-05,280.41
1986-05-06,280.68
1986-05-07,280.89
1986-05-08,281.85
1986-05-09,281.91
1986-05-10,282.19
1986-05-11,282.94
1986-05-12,283.28
1986-05-13,283.28
1986-05-14,283.83
1986-05-15,283.97
1986-05-16,284.17
1986-05-17,285.3
1986-05-18,286.36
1986-05-19,285.85
1986-05-20,285.85
1986-05-21,285.74
1986-05-22,284.58
1986-05-23,286.02
1986-05-24,286.02
1986-05-25,285.95
1986-05-26,285.33
1986-05-27,285.27
1986-05-28,286.36
1986-05-29,285.51
1986-05-30,285.09
1986-05-31,286.12
1986-06-01,285.06
1986-06-02,285.2
1986-06-03,285.57
1986-06-04,285.4
1986-06-05,285.78
1986-06-06,285.61
1986-06-07,285.16
1986-06-08,285.57
1986-06-09,285.06
1986-06-10,284.89
1986-06-11,285.3
1986-06-12,285.68
1986-06-13,285.4
1986-06-14,284.89
1986-06-15,285.13
1986-06-16,285.16
1986-06-17,285.23
1986-06-18,284.75
1986-06-19,284.55
1986-06-20,284.72
1986-06-21,284.86
1986-06-22,284.51
1986-06-23,284.68
1986-06-24,285.85
1986-06-25,285.81
1986-06-26,285.16
1986-06-27,285.13
1986-06-28,285.27
1986-06-29,285.13
1986-06-30,285.06
1986-07-01,285.2
1986-07-02,285.13
1986-07-03,284.92
1986-07-04,284.96
1986-07-05,284.86
1986-07-06,284.86
1986-07-07,284.89
1986-07-08,284.96
1986-07-09,284.82
1986-07-10,284.72
1986-07-11,284.65
1986-07-12,284.75
1986-07-13,285.06
1986-07-14,284.96
1986-07-15,285.4
1986-07-16,285.78
1986-07-17,285.57
1986-07-18,285.23
1986-07-19,285.03
1986-07-20,284.92
1986-07-21,285.09
1986-07-22,285.44
1986-07-23,285.78
1986-07-24,285.85
1986-07-25,285.68
1986-07-26,285.33
1986-07-27,285.27
1986-07-28,285.23
1986-07-29,284.86
1986-07-30,284.48
1986-07-31,284.68
1986-08-01,285.09
1986-08-02,285.44
1986-08-03,285.44
1986-08-04,285.37
1986-08-05,285.3
1986-08-06,285.27
1986-08-07,285.23
1986-08-08,285.13
1986-08-09,285.27
1986-08-10,285.33
1986-08-11,285.4
1986-08-12,285.23
1986-08-13,285.09
1986-08-14,285.03
1986-08-15,285.06
1986-08-16,285.09
1986-08-17,285.16
1986-08-18,285.3
1986-08-19,285.37
1986-08-20,285.44
1986-08-21,285.44
1986-08-22,285.44
1986-08-23,285.44
1986-08-24,285.44
1986-08-25,285.44
1986-08-26,285.44
1986-08-27,285.4
1986-08-28,285.37
1986-08-29,285.44
1986-08-30,285.44
1986-08-31,285.4
1986-09-01,285.4
1986-09-02,285.37
1986-09-03,285.37
1986-09-04,285.4
1986-09-05,285.3
1986-09-06,285.27
1986-09-07,
1986-09-08,285.3
1986-09-09,285.37
1986-09-10,285.44
1986-09-11,285.33
1986-09-12,285.3
1986-09-13,285.3
1986-09-14,285.3
1986-09-15,285.27
1986-09-16,285.3
1986-09-17,285.33
1986-09-18,285.37
1986-09-19,285.4
1986-09-20,285.44
1986-09-21,285.37
1986-09-22,285.33
1986-09-23,285.54
1986-09-24,285.64
1986-09-25,285.44
1986-09-26,285.44
1986-09-27,285.4
1986-09-28,285.4
1986-09-29,285.4
1986-09-30,285.47
1986-10-01,285.71
1986-10-02,285.64
1986-10-03,285.23
1986-10-04,285.33
1986-10-05,285.33
1986-10-06,285.23
1986-10-07,285.33
1986-10-08,285.33
1986-10-09,285.27
1986-10-10,285.13
1986-10-11,284.89
1986-10-12,285.03
1986-10-13,285.2
1986-10-14,285.33
1986-10-15,285.33
1986-10-16,285.37
1986-10-17,285.47
1986-10-18,285.68
1986-10-19,285.51
1986-10-20,285.51
1986-10-21,285.33
1986-10-22,285.37
1986-10-23,285.4
1986-10-24,285.4
1986-10-25,285.33
1986-10-26,285.3
1986-10-27,285.23
1986-10-28,285.13
1986-10-29,284.89
1986-10-30,284.82
1986-10-31,284.75
1986-11-01,284.34
1986-11-02,283.8
1986-11-03,283.28
1986-11-04,282.84
1986-11-05,282.32
1986-11-06,281.64
1986-11-07,281.09
1986-11-08,280.51
1986-11-09,280.14
1986-11-10,279.49
1986-11-11,279.08
1986-11-12,278.6
1986-11-13,278.25
1986-11-14,277.84
1986-11-15,277.47
1986-11-16,276.92
1986-11-17,276.1
1986-11-18,275.94
1986-11-19,275.35
1986-11-20,275.03
1986-11-21,274.76
1986-11-22,274.49
1986-11-23,274.36
1986-11-24,274.2
1986-11-25,
1986-11-26,
1986-11-27,
1986-11-28,
1986-11-29,
1986-11-30,273.85
1986-12-01,274.01
1986-12-02,274.06
1986-12-03,274.09
1986-12-04,274.09
1986-12-05,
1986-12-06,
1986-12-07,
1986-12-08,
1986-12-09,273.82
1986-12-10,273.85
1986-12-11,273.85
1986-12-12,
1986-12-13,
1986-12-14,
1986-12-15,273.93
1986-12-16,273.96
1986-12-17,273.96
1986-12-18,